Probability
0 0 0 0 0 0 0 0 0 0 0 0 0 3 3 3 3 6 3 3 6 6 10 13 16 10 16 10 10 10 13 10 13 10 13 16 10 6 6 6 6 13 13 13
0 0 0 0 0 0 0 0 0 0 0 0 3 3 3 3 6 6 3 0 10 6 10 19 19 23 23 23 16 19 13 13 16 16 13 10 10 10 10 10 6 10 13 13
0 0 0 0 0 0 0 0 0 0 0 0 0 0 0 6 10 10 10 3 3 6 10 16 26 19 16 16 16 19 13 13 19 16 13 13 13 13 16 13 10 10 13 13
0 0 0 0 0 0 0 0 0 3 0 0 3 3 0 3 10 10 10 3 3 6 6 13 19 23 23 19 19 19 23 19 16 16 13 16 19 19 19 16 16 13 13 16
0 0 0 0 0 0 0 0 0 0 3 3 3 3 3 3 6 10 10 6 6 6 3 6 16 16 19 19 19 23 16 16 19 16 19 16 16 19 19 16 13 10 10 10
0 0 0 0 0 0 0 0 0 0 0 3 0 3 6 6 10 10 10 6 6 6 6 13 16 13 10 16 29 16 16 16 19 19 16 13 13 16 13 13 13 13 13 16
0 0 0 0 0 0 0 0 0 0 0 0 0 0 0 3 3 10 13 3 6 10 10 6 10 13 16 26 26 19 13 13 13 16 16 10 10 10 13 16 16 16 16 16
0 0 0 0 0 0 0 0 0 0 0 0 0 3 0 0 3 3 6 10 6 3 3 6 10 16 19 26 26 26 19 16 16 16 16 13 13 13 16 16 16 16 16 10
0 0 0 0 0 0 0 0 0 0 0 0 0 0 0 0 0 6 3 6 6 3 6 10 13 16 19 26 26 23 23 16 16 16 16 16 16 19 19 19 16 16 13 13
0 0 0 0 0 0 0 0 0 0 0 0 0 0 0 0 0 0 0 0 0 0 10 13 10 13 26 26 23 23 19 19 16 16 16 23 16 19 19 19 16 10 13 10
0 0 0 0 0 0 0 0 0 0 0 0 0 0 0 0 0 0 0 0 0 3 10 10 10 13 23 23 23 19 19 19 16 19 23 23 16 16 19 19 13 13 13 10
0 0 0 0 0 0 0 0 0 0 0 0 0 0 0 0 0 0 0 3 3 6 6 6 6 13 13 16 19 23 26 26 23 19 19 16 16 16 19 23 23 13 10 6
0 0 0 0 0 0 0 0 0 0 0 0 0 0 0 0 0 0 3 10 10 10 6 6 13 16 16 13 16 16 19 26 19 19 23 23 16 13 19 16 13 10 10 13
0 0 0 0 0 0 0 0 0 0 0 0 0 0 0 0 0 0 3 10 10 10 6 6 13 16 10 10 10 19 16 26 26 19 19 23 23 19 16 13 13 13 16 16
0 0 0 0 0 0 0 0 0 0 0 0 0 0 0 0 0 3 3 10 10 6 6 13 19 13 6 10 13 16 19 19 26 23 19 19 19 16 13 13 13 13 13 13
0 0 0 0 0 0 0 0 0 0 0 0 0 0 0 0 0 3 6 10 6 10 10 16 16 16 16 13 10 16 19 19 19 19 19 23 23 19 19 16 13 10 13 16
0 0 0 0 0 0 0 0 0 0 0 0 0 0 0 0 3 6 6 16 16 16 10 13 16 16 10 13 13 16 19 19 19 19 19 16 19 13 16 19 16 16 19 16
0 0 0 0 0 0 0 0 3 3 3 3 0 0 6 6 6 3 6 10 19 13 10 10 13 10 6 6 10 13 19 19 23 23 19 23 19 16 16 16 19 16 16 16
0 0 0 0 0 0 0 3 3 6 6 6 6 6 6 3 6 3 6 10 10 6 6 0 6 3 3 6 6 10 16 19 26 26 23 23 23 19 19 23 23 23 19 19
0 0 0 0 0 0 0 3 3 3 6 6 6 6 0 10 10 6 6 13 13 6 3 3 3 3 3 6 6 10 13 16 26 26 23 26 23 23 23 23 23 16 16 19
0 0 0 0 0 0 0 3 3 3 3 6 6 10 10 10 6 6 6 13 10 6 3 6 10 6 10 6 6 13 13 16 19 23 19 19 19 19 19 26 19 16 16 16
0 0 0 0 0 0 0 0 3 3 0 3 3 6 6 6 3 3 10 10 10 6 6 6 10 13 13 13 10 16 16 13 16 19 23 16 19 19 19 23 19 16 19 16
0 0 0 0 0 0 0 0 0 0 0 3 6 3 0 0 0 0 3 3 0 0 6 10 6 10 16 16 13 13 16 16 13 13 19 16 16 19 23 23 23 19 16 19
0 0 0 0 0 0 0 0 0 0 0 0 3 3 3 0 0 3 6 3 3 6 6 6 6 6 13 16 13 13 13 13 13 16 16 13 13 16 23 23 23 19 19 13
0 0 0 0 0 0 0 0 0 0 0 0 0 0 3 3 3 3 6 6 6 6 6 6 10 10 13 16 13 13 10 10 10 10 13 13 13 13 19 19 19 23 19 19
0 0 0 0 0 0 0 0 0 0 0 0 0 0 0 0 3 10 10 6 6 6 6 6 6 6 10 10 10 10 10 10 10 10 13 16 16 16 16 16 13 0 6 3
Height
5903 5905 5907 5908 5909 5909 5909 5910 5910 5911 5910 5910 5910 5910 5910 5910 5909 5908 5907 5906 5905 5904 5903 5902 5901 5899 5898 5897 5897 5896 5896 5895 5895 5894 5894 5893 5893 5892 5891 5891 5890 5889 5888 5887
5902 5904 5906 5906 5907 5908 5908 5909 5910 5910 5909 5910 5910 5910 5910 5909 5909 5908 5907 5906 5905 5904 5904 5902 5901 5900 5899 5898 5897 5897 5896 5896 5896 5895 5894 5893 5893 5892 5891 5891 5890 5889 5888 5887
5900 5903 5903 5905 5905 5906 5907 5908 5908 5909 5908 5908 5909 5910 5909 5909 5908 5908 5907 5906 5905 5905 5904 5903 5902 5900 5899 5899 5898 5897 5896 5896 5895 5894 5893 5893 5892 5892 5891 5890 5889 5888 5887 5886
5898 5900 5902 5903 5904 5905 5906 5907 5907 5907 5907 5907 5908 5908 5909 5908 5907 5907 5907 5906 5905 5904 5903 5903 5901 5900 5899 5898 5898 5897 5896 5896 5895 5894 5893 5892 5892 5891 5890 5890 5889 5888 5886 5885
5896 5898 5900 5901 5903 5903 5904 5905 5905 5905 5905 5906 5906 5907 5908 5907 5906 5906 5906 5906 5905 5904 5903 5902 5901 5900 5899 5898 5897 5897 5896 5895 5894 5894 5893 5892 5891 5890 5890 5889 5888 5887 5885 5884
5894 5896 5898 5899 5901 5901 5902 5903 5903 5903 5904 5905 5905 5905 5906 5905 5905 5905 5905 5904 5904 5903 5902 5901 5900 5899 5898 5898 5897 5896 5895 5894 5894 5893 5892 5891 5890 5889 5888 5888 5886 5885 5884 5883
5891 5893 5895 5897 5898 5899 5900 5901 5901 5901 5901 5903 5903 5903 5904 5904 5903 5903 5903 5903 5902 5901 5901 5900 5899 5898 5897 5897 5896 5895 5894 5893 5892 5891 5890 5889 5888 5887 5887 5886 5885 5883 5882 5881
5888 5891 5893 5894 5896 5897 5897 5899 5900 5900 5900 5900 5900 5900 5902 5901 5901 5901 5901 5901 5900 5900 5899 5898 5898 5897 5896 5896 5895 5894 5892 5891 5890 5889 5888 5887 5887 5886 5885 5884 5883 5882 5880 5879
5885 5888 5889 5891 5893 5894 5895 5895 5897 5897 5897 5897 5897 5898 5898 5898 5898 5898 5899 5898 5898 5898 5897 5897 5896 5896 5895 5894 5893 5892 5890 5889 5888 5887 5887 5886 5885 5884 5883 5882 5880 5879 5878 5876
5881 5884 5886 5887 5889 5890 5892 5893 5893 5893 5893 5893 5894 5894 5895 5896 5896 5896 5896 5896 5895 5895 5895 5894 5894 5893 5892 5891 5890 5889 5888 5887 5886 5885 5884 5883 5882 5881 5880 5879 5877 5876 5874 5873
5877 5880 5882 5884 5885 5887 5888 5889 5889 5890 5890 5890 5890 5893 5892 5893 5893 5892 5892 5892 5892 5892 5892 5891 5891 5890 5889 5889 5888 5887 5886 5885 5884 5882 5881 5880 5879 5878 5877 5875 5874 5873 5871 5869
5873 5876 5878 5880 5881 5882 5884 5885 5886 5887 5887 5887 5887 5891 5889 5889 5889 5889 5889 5889 5889 5889 5889 5889 5888 5887 5887 5886 5885 5884 5883 5882 5880 5879 5878 5876 5875 5874 5873 5872 5870 5869 5867 5866
5869 5871 5873 5875 5879 5879 5879 5881 5882 5883 5883 5883 5883 5887 5886 5886 5886 5886 5886 5886 5886 5886 5886 5886 5885 5884 5884 5883 5881 5880 5879 5877 5876 5876 5875 5873 5871 5870 5869 5868 5867 5865 5864 5862
5864 5866 5869 5871 5873 5874 5875 5876 5877 5878 5878 5879 5880 5881 5882 5882 5882 5883 5883 5883 5883 5883 5882 5882 5882 5881 5880 5879 5877 5876 5874 5872 5872 5872 5871 5869 5868 5867 5866 5864 5863 5861 5859 5858
5858 5860 5862 5864 5866 5868 5870 5871 5872 5873 5874 5874 5875 5876 5877 5878 5878 5879 5879 5879 5879 5879 5879 5878 5878 5877 5876 5875 5873 5872 5871 5870 5869 5868 5867 5865 5864 5863 5861 5860 5858 5856 5854 5853
5852 5854 5856 5858 5860 5861 5864 5866 5867 5868 5868 5869 5870 5871 5872 5872 5873 5874 5874 5874 5874 5874 5874 5874 5873 5872 5871 5870 5869 5868 5867 5865 5865 5863 5862 5860 5859 5858 5856 5855 5853 5851 5849 5848
5846 5848 5850 5852 5854 5854 5857 5860 5861 5862 5863 5864 5865 5867 5866 5867 5868 5868 5869 5869 5869 5869 5869 5869 5868 5867 5866 5865 5864 5863 5862 5861 5859 5858 5857 5855 5854 5853 5851 5850 5848 5846 5844 5842
5840 5842 5843 5845 5848 5848 5853 5854 5855 5856 5857 5858 5859 5860 5861 5861 5862 5862 5863 5863 5863 5863 5863 5863 5862 5862 5861 5860 5859 5858 5857 5855 5854 5853 5851 5849 5848 5847 5846 5844 5843 5841 5839 5837
5832 5835 5836 5838 5839 5841 5845 5846 5847 5849 5850 5852 5853 5854 5855 5855 5855 5856 5857 5857 5857 5857 5856 5856 5856 5855 5854 5854 5853 5851 5851 5849 5848 5847 5845 5844 5842 5841 5840 5838 5836 5834 5832 5830
5825 5827 5830 5831 5832 5834 5838 5839 5840 5842 5843 5845 5846 5847 5847 5848 5849 5850 5850 5850 5850 5850 5849 5849 5849 5848 5847 5847 5846 5845 5843 5842 5841 5840 5839 5837 5835 5834 5833 5831 5829 5827 5825 5823
5818 5820 5822 5823 5824 5826 5829 5831 5833 5835 5837 5838 5838 5839 5840 5841 5842 5843 5842 5842 5842 5842 5842 5841 5841 5840 5840 5839 5838 5837 5836 5835 5834 5833 5831 5830 5828 5827 5825 5824 5822 5820 5818 5816
5811 5812 5814 5816 5817 5821 5821 5822 5825 5827 5828 5829 5830 5831 5832 5833 5833 5834 5834 5835 5835 5834 5834 5834 5833 5833 5832 5831 5830 5829 5828 5827 5826 5825 5823 5822 5821 5819 5818 5816 5814 5812 5811 5809
5803 5805 5806 5809 5811 5812 5813 5814 5816 5817 5819 5820 5822 5823 5824 5824 5825 5826 5826 5826 5826 5826 5826 5825 5825 5824 5824 5823 5822 5821 5820 5819 5818 5816 5815 5814 5813 5811 5810 5808 5807 5805 5803 5801
5795 5796 5798 5800 5802 5803 5805 5806 5807 5808 5810 5811 5813 5814 5815 5816 5816 5817 5817 5817 5817 5817 5816 5816 5815 5815 5814 5813 5812 5811 5810 5809 5808 5807 5806 5805 5804 5803 5801 5800 5798 5797 5795 5793
5787 5789 5790 5792 5794 5794 5796 5797 5798 5800 5801 5802 5804 5805 5806 5807 5807 5808 5808 5808 5808 5807 5806 5805 5805 5805 5804 5803 5802 5801 5800 5799 5799 5798 5797 5796 5794 5793 5792 5791 5789 5788 5786 5784
5779 5780 5782 5783 5785 5786 5788 5789 5790 5791 5792 5793 5794 5795 5796 5796 5797 5798 5798 5798 5798 5797 5796 5795 5795 5794 5794 5793 5792 5791 5790 5789 5789 5788 5787 5786 5784 5783 5783 5781 5780 5778 5777 5775
Wind_Speed
12 11 9 8 7 7 5 4 3 4 5 4 4 4 4 4 4 5 5 6 6 7 8 9 9 8 8 7 7 6 5 5 6 5 5 5 5 5 5 6 6 6 6 6
13 11 10 10 9 8 7 6 5 6 7 6 6 5 4 3 3 3 4 5 5 6 7 8 7 7 7 7 6 5 5 5 5 4 4 4 5 5 5 6 6 6 7 6
13 12 12 11 10 9 7 7 6 7 8 8 7 5 5 4 3 2 3 4 4 5 6 7 7 7 6 6 5 4 4 4 5 4 4 4 5 5 5 6 7 7 7 7
15 14 13 12 11 10 9 8 9 9 10 10 9 7 6 5 4 3 3 3 4 5 6 6 7 7 8 6 5 5 4 5 5 6 5 5 5 5 5 6 7 8 8 7
16 15 15 13 11 11 10 10 10 10 10 10 10 9 7 6 6 5 5 4 4 5 6 6 6 7 7 6 6 5 5 5 5 6 6 6 5 5 6 7 8 9 9 8
17 16 15 14 13 13 12 12 12 11 11 12 11 11 9 8 7 7 7 6 5 5 6 5 6 6 6 6 6 6 5 6 6 6 7 7 6 6 7 8 9 9 9 9
18 17 16 15 14 14 14 14 14 13 13 12 12 13 11 10 9 9 8 7 7 6 6 5 5 6 6 6 7 6 6 7 7 8 8 8 6 7 7 9 10 10 10 10
18 17 17 16 16 15 15 15 15 15 14 14 15 14 14 12 11 10 9 9 8 8 7 7 7 7 7 6 7 7 8 7 8 8 8 7 8 8 8 9 10 11 11 12
18 18 17 18 17 16 16 16 16 16 16 16 16 16 15 13 12 12 12 11 10 9 8 8 8 7 7 7 8 8 8 8 8 8 8 9 10 10 10 10 12 12 12 13
20 19 19 19 19 18 17 17 17 17 17 17 17 16 15 13 13 13 13 12 12 11 10 9 9 8 8 8 9 9 9 9 9 9 9 10 11 11 11 12 13 13 14 14
21 21 20 20 20 20 19 18 18 18 18 17 17 15 14 13 13 13 13 13 13 12 12 12 11 10 9 10 10 10 10 10 10 11 11 12 12 13 13 13 13 14 14 15
22 22 21 21 21 21 22 21 20 20 19 19 18 16 15 15 14 14 14 14 13 13 13 13 12 11 11 11 11 12 12 12 12 12 12 12 13 13 13 14 14 14 14 15
23 23 22 21 22 21 22 22 22 22 21 20 20 18 16 16 16 16 16 15 15 15 15 14 13 13 13 13 13 14 14 14 14 13 14 14 14 13 14 14 15 15 15 16
25 25 24 23 22 22 22 23 23 22 22 21 21 20 18 17 17 16 16 16 16 16 15 15 15 15 15 15 15 15 15 14 15 16 15 15 15 15 15 15 16 17 17 17
26 26 25 25 24 24 24 23 23 23 23 23 22 21 20 19 18 18 17 17 17 17 17 17 16 16 16 17 17 17 17 17 17 16 16 17 17 16 16 17 17 18 18 18
28 28 27 27 27 27 25 24 24 24 24 24 23 22 22 21 20 19 18 19 19 19 19 19 18 19 19 19 18 19 18 18 18 18 19 19 19 18 17 17 18 19 20 21
29 29 29 29 29 29 27 25 25 25 25 25 24 23 23 22 21 20 20 20 20 20 21 21 21 21 21 20 20 20 20 20 20 21 21 20 19 18 18 18 20 21 21 22
30 30 30 30 30 31 28 27 27 27 26 25 25 25 24 24 23 22 22 22 21 22 22 22 22 22 23 22 22 23 23 22 22 23 23 21 20 19 20 21 21 22 23 23
29 29 30 30 30 31 30 29 28 28 27 26 26 25 25 25 25 25 24 24 24 24 24 23 24 24 24 24 24 24 24 24 24 24 24 24 23 22 22 23 24 24 25 25
30 30 30 30 30 31 30 30 30 30 29 27 27 27 27 26 26 26 26 26 26 25 25 25 26 26 26 26 26 25 25 25 25 25 25 25 25 25 25 26 26 26 26 26
31 31 30 30 31 32 31 30 29 30 29 28 28 28 29 28 28 27 27 27 27 27 27 27 27 27 27 27 28 27 27 28 28 27 27 27 27 27 27 27 28 28 27 27
31 32 31 30 31 31 30 30 30 30 30 30 29 29 29 29 29 28 28 28 28 29 29 29 29 30 30 30 30 30 30 30 29 29 28 28 28 29 28 29 29 29 28 27
32 31 31 30 30 30 30 30 30 30 31 31 30 30 30 30 29 29 29 30 30 30 31 32 31 32 32 32 32 32 31 31 30 30 30 29 30 30 30 29 29 29 28 28
32 32 31 31 30 30 30 30 30 31 31 31 31 31 31 31 31 31 31 31 31 32 33 33 33 34 34 34 33 33 32 33 32 31 31 31 31 31 31 31 30 30 30 30
32 33 32 32 32 31 31 31 32 32 33 33 33 32 32 32 31 31 31 32 32 33 33 33 33 34 33 33 33 33 33 34 34 33 32 32 32 32 31 31 31 31 31 31
32 33 33 32 32 32 32 32 32 32 33 34 34 34 34 33 33 33 33 32 33 33 33 33 32 33 33 33 33 34 33 33 33 33 32 32 32 31 31 31 31 31 32 32
Wind_Direction
208 209 205 211 214 220 230 240 246 276 283 296 322 348 359 20 31 33 34 34 38 36 36 34 36 40 42 45 46 50 53 50 47 43 38 37 31 23 19 13 7 359 356 351
209 208 208 213 218 224 233 243 248 261 271 280 299 319 323 334 3 26 26 23 25 22 24 29 30 32 37 41 40 42 44 40 36 27 18 16 14 13 13 8 1 350 346 344
211 210 215 219 226 231 238 247 254 259 264 275 289 298 310 310 313 341 356 2 9 14 12 14 16 18 21 24 24 28 27 25 22 12 8 7 5 4 4 358 350 344 338 335
214 215 218 225 234 241 244 249 254 257 259 269 282 285 296 298 289 294 306 333 347 353 358 359 3 4 2 3 5 6 6 1 356 351 352 358 2 353 346 342 342 342 339 333
217 220 223 228 235 243 243 247 252 258 262 268 280 283 283 286 290 293 295 306 325 330 337 341 343 351 353 351 349 350 349 341 343 343 339 341 347 344 340 338 337 336 335 333
222 225 229 231 235 242 244 249 254 258 262 266 274 278 281 284 287 291 296 297 306 312 318 325 328 332 341 343 334 334 335 330 325 324 322 320 326 330 330 330 329 331 330 329
225 228 231 234 236 241 246 253 256 259 262 265 268 269 277 281 281 283 289 290 293 294 301 306 313 317 327 330 324 315 320 323 314 310 311 312 317 323 325 325 324 325 324 322
227 228 232 236 238 242 247 255 259 262 265 266 266 268 274 277 276 278 281 287 288 283 286 294 303 309 316 321 319 317 318 322 320 320 325 319 320 319 318 318 319 320 319 318
228 229 234 237 239 241 246 251 257 261 266 269 269 268 270 272 275 274 276 281 284 282 281 288 295 301 308 311 315 318 315 315 317 316 318 318 319 316 312 312 316 315 314 315
229 230 232 236 240 242 247 251 255 261 268 271 271 269 270 272 276 277 276 278 283 283 284 285 290 296 302 306 310 314 312 307 305 305 308 309 310 309 306 309 314 314 311 309
232 234 234 238 243 246 250 253 257 262 266 270 273 272 273 274 273 275 276 278 282 280 282 287 291 294 301 305 302 303 306 306 307 305 303 302 303 302 301 303 307 308 306 305
233 237 237 239 243 246 250 253 257 262 265 269 271 270 272 272 270 273 273 274 276 275 278 280 284 288 296 299 297 296 297 301 306 303 305 306 304 304 302 301 302 304 305 306
235 238 241 242 244 247 251 255 259 261 263 267 270 270 269 270 269 272 272 272 270 273 276 276 280 287 293 296 293 293 291 292 297 301 301 302 302 303 302 300 301 304 307 308
239 241 243 245 248 251 254 257 259 258 260 265 269 269 267 268 267 270 269 268 269 272 274 277 281 286 290 292 290 290 291 292 297 301 298 298 299 299 298 299 299 300 302 304
240 243 245 247 250 253 254 257 258 258 259 262 266 268 268 267 267 268 269 268 267 269 271 274 278 282 286 288 288 288 289 292 294 296 297 298 298 296 296 297 299 299 299 301
242 246 248 250 252 254 255 255 257 259 259 262 265 266 267 267 266 267 268 270 269 269 271 272 274 278 282 285 285 286 285 289 291 292 295 295 293 292 298 302 303 302 300 300
245 248 251 252 254 256 255 255 257 261 262 262 263 264 267 266 265 265 267 270 269 272 272 272 274 277 281 284 284 285 283 285 287 289 290 289 290 292 296 299 302 303 302 301
246 249 252 253 255 257 258 258 259 261 262 261 261 262 263 266 267 268 269 270 269 271 270 270 271 273 278 281 284 283 283 284 286 289 290 288 289 291 294 297 300 301 302 302
247 250 253 254 256 258 258 259 260 261 262 262 262 262 262 264 266 268 270 270 271 272 272 272 273 274 275 278 281 283 286 287 288 290 289 288 289 289 292 296 298 299 299 300
250 252 254 255 256 258 259 259 261 262 262 261 262 263 264 264 265 267 268 268 270 271 272 274 275 275 277 278 280 283 286 288 289 289 288 289 289 289 290 293 295 296 297 299
251 253 255 257 258 258 259 261 261 262 262 261 262 263 264 266 267 267 267 267 269 270 271 273 275 277 279 280 282 284 287 289 289 287 286 287 289 289 290 291 293 295 296 298
252 254 256 257 258 259 261 262 261 261 261 261 262 263 264 266 266 266 267 268 269 271 272 274 275 276 277 280 282 284 286 287 288 287 286 286 286 287 288 290 291 293 295 296
253 255 256 258 259 260 259 260 260 260 261 260 261 263 264 266 266 266 267 268 269 270 271 272 274 275 277 279 281 282 284 285 286 286 285 285 285 285 286 288 289 291 293 294
253 255 256 258 259 259 259 259 259 259 260 260 261 262 262 263 265 266 268 269 270 272 273 272 273 275 277 279 280 281 283 284 284 284 283 284 284 283 284 285 286 288 290 292
255 256 257 259 260 260 260 260 260 261 261 261 262 262 263 264 265 267 267 269 271 272 274 273 273 275 276 277 279 280 281 281 282 282 282 283 283 282 282 284 285 287 289 291
253 254 256 257 258 259 260 262 262 262 261 261 262 264 265 265 266 268 270 271 273 273 274 274 273 273 275 276 277 278 279 280 280 280 281 283 282 280 280 282 284 286 288 290